www.pogodaiklimat.ru
ПОГОДА в Понсе
Время
и дата
19:15 18.06
19:35 18.06
19:55 18.06
20:15 18.06
20:35 18.06
20:55 18.06
21:15 18.06
21:35 18.06
21:55 18.06
22:15 18.06
22:35 18.06
22:55 18.06
23:15 18.06
23:35 18.06
23:55 18.06
00:15 19.06
00:35 19.06
00:55 19.06
01:15 19.06
01:35 19.06
01:55 19.06
02:15 19.06
02:35 19.06
02:55 19.06
03:15 19.06
03:35 19.06
03:55 19.06
04:15 19.06
04:35 19.06
04:55 19.06
05:15 19.06
05:35 19.06
05:55 19.06
06:15 19.06
06:35 19.06
06:55 19.06
07:15 19.06
07:35 19.06
07:55 19.06
08:15 19.06
08:35 19.06
08:55 19.06
09:15 19.06
09:55 19.06
10:15 19.06
10:35 19.06
10:55 19.06
11:15 19.06
Ветер
(напр.,м/с)
Видим. Явления Облачность Т
(С)
Тd
(С)
f
(%)
Тe
(С)
Тes
(С)
Комфортность P
(гПа)
Po
(гПа)
Тmin
(С)
Tmax
(С)
R
(мм)
R24
(мм)
S
(см)
ЮВ 2 16 км ясно +30.0 +24.0 70 +41 +41 опасность
перегрева
1010.4
В 2 16 км ясно +29.0 +24.0 74 +40 +40 очень
душно
1010.8
штиль 0 16 км ясно +29.0 +24.0 74 +40 +40 очень
душно
1011.1
СВ 2 16 км ясно +29.0 +24.0 74 +40 +40 очень
душно
1011.1
штиль 0 16 км ясно +29.0 +24.0 74 +40 +40 очень
душно
1011.5
штиль 0 16 км ясно +28.0 +24.0 79 +39 +39 очень
душно
1011.5
штиль 0 16 км ясно +28.0 +24.0 79 +39 +39 очень
душно
1011.8
штиль 0 16 км ясно +27.0 +24.0 84 +37 +37 очень
душно
1012.1
штиль 0 16 км 2/2 750 м +27.0 +24.0 84 +37 +37 очень
душно
1012.1
штиль 0 16 км 2/2 780 м +27.0 +24.0 84 +37 +37 очень
душно
1012.1
штиль 0 16 км ясно +27.0 +24.0 84 +37 +37 очень
душно
1012.1
штиль 0 16 км ясно +27.0 +23.0 79 +36 +36 очень
душно
1012.1
штиль 0 16 км 2/2 1410 м +27.0 +23.0 79 +36 +36 очень
душно
1012.1
штиль 0 16 км 5/5 1440 м +27.0 +23.0 79 +36 +36 очень
душно
1012.1
штиль 0 16 км 5/5 1410 м +27.0 +23.0 79 +36 +36 очень
душно
1011.8
штиль 0 16 км 8/8 1470 м +27.0 +23.0 79 +36 +36 очень
душно
1011.8
штиль 0 16 км 10/10 1500 м +27.0 +23.0 79 +36 +36 очень
душно
1011.5
штиль 0 16 км 10/10 1470 м +27.0 +23.0 79 +36 +36 очень
душно
1011.1
штиль 0 16 км 10/10 1440 м +26.0 +22.0 79 +34 +34 очень
душно
1011.1
штиль 0 16 км 10/10 1440 м +26.0 +22.0 79 +34 +34 очень
душно
1010.8
штиль 0 16 км 10/10 1380 м +26.0 +22.0 79 +34 +34 очень
душно
1010.8
В 2 16 км 10/10 1290 м +26.0 +22.0 79 +34 +34 очень
душно
1010.8
В 2 16 км 10/10 1290 м +25.0 +22.0 83 +32 +32 очень
душно
1010.4
штиль 0 16 км 5/5 1320 м +25.0 +22.0 83 +32 +32 очень
душно
1010.4
штиль 0 16 км ясно +26.0 +22.0 79 +34 +34 очень
душно
1010.4
штиль 0 16 км ясно +26.0 +22.0 79 +34 +34 очень
душно
1010.4
штиль 0 16 км 2/2 1380 м +26.0 +22.0 79 +34 +34 очень
душно
1010.4
СВ 2 16 км ясно +26.0 +22.0 79 +34 +34 очень
душно
1010.4
штиль 0 16 км ясно +26.0 +22.0 79 +34 +34 очень
душно
1010.4
штиль 0 16 км ясно +26.0 +22.0 79 +34 +34 очень
душно
1010.4
штиль 0 16 км ясно +26.0 +22.0 79 +34 +34 очень
душно
1010.8
штиль 0 16 км ясно +25.0 +22.0 83 +32 +32 очень
душно
1010.8
штиль 0 16 км ясно +25.0 +22.0 83 +32 +32 очень
душно
1011.1
штиль 0 16 км ясно +26.0 +22.0 79 +34 +34 очень
душно
1011.5
штиль 0 16 км ясно +26.0 +23.0 84 +35 +35 очень
душно
1011.5
штиль 0 16 км ясно +28.0 +23.0 74 +37 +37 очень
душно
1011.8
штиль 0 16 км ясно +29.0 +23.0 70 +39 +41 очень
душно
1012.1
нст 2 16 км ясно +30.0 +23.0 66 +40 +41 очень
душно
1012.1
нст 3 16 км ясно +31.0 +24.0 66 +43 +44 опасность
перегрева
1012.1
В 3 16 км 2/2 720 м +31.0 +24.0 66 +43 +46 опасность
перегрева
1012.5
В 4 16 км 5/5 720 м +31.0 +24.0 66 +43 +44 опасность
перегрева
1012.5
В 3 16 км 5/5 750 м +31.0 +25.0 70 +44 +46 опасность
перегрева
1012.5
нст 3
{6}
16 км 5/5 750 м +31.0 +25.0 70 +44 +48 опасность
перегрева
1012.8
ЮВ 6 16 км 2/2 810 м +32.0 +25.0 67 +46 +49 опасность
перегрева
1013.1
ЮВ 7
{10}
16 км 2/2 810 м +33.0 +25.0 63 +47 +50 опасность
перегрева
1013.1
ЮВ 7 16 км ясно +33.0 +24.0 59 +45 +49 опасность
перегрева
1013.1
ЮВ 6 16 км ясно +33.0 +24.0 59 +45 +51 опасность
перегрева
1013.1
ЮВ 5
{9}
16 км ясно +33.0 +24.0 59 +45 +55 опасность
перегрева
1013.5
Местоположение метеостанции Mercedita Airport: широта 18.0167 долгота -66.5667 высота над уровнем моря 8 м.
В архиве по умолчанию представлена погода в Понсе за последние 1-2 суток. Обновление информации о фактической погоде в базе происходит ежечасно! Архивные данные за месяц целиком и за предыдущие месяцы Вы можете получить, выбрав интересующий диапазон дат из раскрывающегося списка и нажав кнопку "Ввод!".
Внимание! Архив погоды МЕТАР в базе сайта по станциям, не включенным в климатический монитор, хранится не более 60 дней. Нет смысла пытаться выбрать более раннюю дату.
*Определитесь, кто Вы:
Внимание! Время в таблицах - местное (без учета летнего времени). Для получения всемирного времени необходимо вычесть поправку, которая равна -4 ч.
Смотрите также архив погоды в соседних городах и на ближайших метеорологических станциях:
Партнеры нашего сайта:      
Пояснения к столбцам:
  • Ветер - указаны скорость ветра в м/с - средняя за 10 мин, порывы в срок и между сроками (в фигурных скобках) и направление, откуда дует ветер: С - северный,
  • СВ - северо-восточный, В - восточный, ЮВ - юго-восточный, Ю - южный, ЮЗ - юго-западный, З - западный, СЗ - северо-западный.
  • Видимость - горизонтальная дальность видимости в метрах или километрах. При видимости от 1 до 10 км при отсутствии осадков обычно наблюдается дымка, при ухудшении видимости до 1 км и менее - туман. В сухую погоду видимость может ухудшаться дымом, пылью или мглою.
  • Явления - указаны атмосферные явления, наблюдавшиеся в срок или в последний час перед сроком; фигурными скобками обозначены явления, наблюдавшиеся между сроками (за 1-3 часа до срока); квадратными скобками обозначены град или гололедные отложения с указанием их диаметра в мм.
  • Облачность - указаны через наклонную черту общая и нижняя облачность в баллах и высота нижней границы облаков в метрах; квадратными скобками обозначены формы облаков: Ci - перистые, Cs - перисто-слоистые, Cc - перисто-кучевые, Ac - высококучевые, As - высокослоистые, Sc - слоисто-кучевые, Ns - слоисто-дождевые, Cu - кучевые, Cb - кучево-дождевые. Подробнее классификацию облаков см. в Атласе облаков (PDF).
  • T - Температура воздуха - температура, измеренная на высоте 2 м над землей.
  • Td - Температура точки росы - температура, при понижении до которой содержащийся в воздухе водяной пар достигнет насыщения.
  • f - Относительная влажность воздуха - влажноcть воздуха, измеренная на высоте 2 м над землей.
  • Te - Эффективная температура - температура, которую ощущает одетый по сезону человек в тени. Характеристика душности погоды. При расчете учитывается влияние влажности воздуха и скорости ветра на теплоощущения человека.
  • Tes - Эффективная температура на солнце - температура, которую ощущает человек, с поправкой на солнечный нагрев. Характеристика знойности погоды. Зависит от высоты солнца над горизонтом, облачности и скорости ветра. Ночью, в пасмурную погоду, а также при ветре 12 м/с и более поправка равна нулю.
  • P - Атмосферное давление - приведенное к уровню моря атмосферное давление.
  • Po - Атмосферное давление - измеренное на уровне метеостанции атмосферное давление.
  • Tmin - Минимальная температура - минимум температуры воздуха на высоте 2 м над землей.
  • Tmax - Максимальная температура - максимум температуры воздуха на высоте 2 м над землей.
  • R - Количество осадков - Количество выпавших осадков за период времени, мм. При наведении курсора мыши на число - период времени, за который выпало указанное количество осадков.
  • R24 - Количество осадков - Количество выпавших осадков за 24 часа, мм.
  • S - Снежный покров - Высота снежного покрова, см. При наведении курсора мыши на число - состояние снежного покрова и степень покрытия местности в баллах.